[[{"header":{"parameterUnit":"m.s-1","parameterCategory":1,"la1":30.2991,"la2":30.254,"lo1":-89.0895,"lo2":-89.0444,"dy":0.0017,"dx":0.0017,"nx":28,"ny":28,"refTime":"2025-11-17T03:00:00:Z","depth":0,"parameterNumber":2,"parameterNumberName":"U-component_of_WINDS"},"data":[0,0,0,0,0,0,0,0,0,0,0,0,0,0,0,0,0,0,0,0,0,0,0,0,0,0,0,0,0,0,0,0,0,0,0,0,0,0,0,0,0,0,0,0,0,0,0,0,0,0,0,0,0,0,0,0,0,0,-1.375,-1.375,0,-1.3781,-1.3781,-1.3782,-1.3769,-1.3768,-1.3767,-1.3767,-1.3802,-1.3803,-1.3805,0,0,0,0,0,0,0,0,0,0,0,0,0,-1.3682,-1.3683,-1.375,-1.375,-1.375,-1.3781,-1.3781,-1.3782,-1.3769,-1.3768,-1.3767,-1.3766,-1.3801,-1.3803,-1.3805,0,0,0,0,0,0,0,0,0,0,0,0,0,-1.3712,-1.3684,-1.3749,-1.3748,-1.3748,-1.3781,-1.3781,-1.3782,-1.3769,-1.3768,-1.3767,-1.3766,-1.3801,-1.3803,-1.3806,-1.3843,0,0,-1.3813,-1.3814,0,0,0,0,0,0,0,0,-1.371,-1.3715,-1.3747,-1.3748,-1.3748,-1.377,-1.377,-1.3803,-1.377,-1.3761,-1.3767,-1.3765,-1.3792,-1.3795,-1.3804,-1.3845,-1.3846,-1.3813,-1.3815,-1.3816,-1.3816,0,0,0,0,0,0,0,-1.3708,-1.3713,-1.3762,-1.3748,-1.3748,-1.3746,-1.3749,-1.3776,-1.3783,-1.3762,-1.3761,-1.3765,-1.3792,-1.3802,-1.3805,-1.3847,-1.3813,-1.3815,-1.3817,-1.3818,-1.3922,-1.3923,0,0,0,0,0,0,-1.3706,-1.3712,-1.3761,-1.3763,-1.3726,-1.3748,-1.3752,-1.3764,-1.3782,-1.3784,-1.3766,-1.3764,-1.3798,-1.3802,-1.3806,-1.3852,-1.3816,-1.3818,-1.3819,-1.392,-1.3922,-1.3923,0,0,0,0,0,0,-1.3704,-1.371,-1.376,-1.3737,-1.3743,-1.3751,-1.3765,-1.3765,-1.3774,-1.3785,-1.3787,-1.3774,-1.3797,-1.3802,-1.3834,-1.3853,-1.3819,-1.3821,-1.3919,-1.3921,-1.3923,-1.3944,0,0,0,0,0,0,-1.3703,-1.371,-1.3723,-1.3737,-1.3744,-1.3787,-1.3766,-1.3767,-1.3778,-1.3776,-1.3793,-1.3795,-1.3797,-1.383,-1.3837,-1.3856,-1.3823,-1.3917,-1.392,-1.3922,-1.3941,-1.3946,-1.395,0,0,0,0,0,-1.37,-1.3729,-1.3724,-1.373,-1.3761,-1.3788,-1.3792,-1.3792,-1.378,-1.3794,-1.3801,-1.3794,-1.385,-1.3834,-1.3841,-1.3861,-1.3916,-1.3919,-1.3922,-1.3939,-1.3945,-1.395,0,0,0,0,0,0,-1.3718,-1.373,-1.3726,-1.3759,-1.3772,-1.3785,-1.3803,-1.3798,-1.3816,-1.3814,-1.3815,-1.3818,-1.3851,-1.3859,-1.3841,-1.3899,-1.3881,-1.3886,-1.3892,-1.3898,-1.3902,-1.39,-1.3825,0,0,0,0,0,-1.3725,-1.3744,-1.3755,-1.3784,-1.379,-1.3796,-1.3807,-1.3807,-1.3821,-1.3826,-1.3836,-1.3851,-1.3871,-1.3885,-1.3905,-1.3942,-1.3947,-1.396,-1.3964,-1.3968,-1.3972,-1.3993,-1.3999,-1.3933,-1.3933,-1.3933,0,0,-1.3742,-1.3751,-1.3763,-1.3788,-1.3798,-1.3819,-1.3801,-1.3823,-1.3839,-1.383,-1.386,-1.3868,-1.3885,-1.392,-1.3936,-1.3927,-1.3991,-1.3971,-1.3974,-1.3976,-1.3997,-1.4003,-1.4009,-1.3935,-1.3934,-1.3934,0,0,-1.3782,-1.3791,-1.3816,-1.3826,-1.3841,-1.3845,-1.3851,-1.3865,-1.3869,-1.3899,-1.3893,-1.3913,-1.3948,-1.396,-1.3971,-1.4017,-1.4012,-1.4023,-1.4046,-1.4067,-1.4073,-1.4077,-1.4094,-1.41,-1.4027,-1.4027,-1.4027,0,-1.3801,-1.3831,-1.383,-1.3853,-1.3864,-1.3856,-1.3882,-1.3893,-1.3914,-1.3923,-1.3913,-1.3957,-1.3968,-1.4006,-1.4017,-1.4026,-1.4034,-1.4021,-1.4072,-1.4076,-1.4081,-1.4097,-1.4103,-1.4029,-1.4028,-1.4028,-1.4028,0,-1.3854,-1.3875,-1.3893,-1.3913,-1.3927,-1.3951,-1.3955,-1.3969,-1.3967,-1.3972,-1.4004,-1.4016,-1.4038,-1.4047,-1.4046,-1.4086,-1.408,-1.4071,-1.4054,-1.4088,-1.4104,-1.411,-1.403,-1.403,-1.403,-1.4029,0,0,-1.3906,-1.3925,-1.3932,-1.3941,-1.3957,-1.3974,-1.3999,-1.4019,-1.4032,-1.4047,-1.4069,-1.4099,-1.4091,-1.4103,-1.4103,-1.4122,-1.4158,-1.411,-1.4111,-1.4119,-1.4203,-1.421,-1.4218,-1.4154,-1.4155,-1.4156,-1.4202,0,-1.3948,-1.399,-1.399,-1.403,-1.405,-1.4042,-1.4064,-1.4077,-1.4083,-1.4101,-1.4108,-1.413,-1.4116,-1.4124,-1.4142,-1.415,-1.4175,-1.4146,-1.4176,-1.4177,-1.4172,-1.4225,-1.4233,-1.4275,-1.4208,-1.4209,-1.421,0,-1.4003,-1.4019,-1.406,-1.4074,-1.4082,-1.4102,-1.4121,-1.4139,-1.4154,-1.4156,-1.417,-1.4168,-1.4194,-1.4176,-1.4213,-1.4194,-1.4206,-1.4212,-1.4213,-1.4216,-1.4196,-1.4231,-1.4289,-1.4296,-1.4219,-1.4218,-1.4218,0,-1.4038,-1.407,-1.4099,-1.4107,-1.4123,-1.4137,-1.4145,-1.4159,-1.4171,-1.4189,-1.4197,-1.4218,-1.4229,-1.4246,-1.425,-1.4236,-1.4287,-1.4269,-1.4291,-1.4291,-1.4303,-1.4302,-1.4365,-1.431,-1.431,-1.431,-1.4309,0,-1.4086,-1.4111,-1.4115,-1.4133,-1.4162,-1.4162,-1.4191,-1.4197,-1.421,-1.423,-1.4225,-1.4244,-1.4247,-1.4268,-1.4271,-1.4302,-1.4307,-1.4311,-1.4311,-1.4312,-1.4311,-1.432,-1.4317,-1.4311,-1.4311,-1.4311,-1.431,0,-1.413,-1.4133,-1.4164,-1.4177,-1.4181,-1.4202,-1.4213,-1.4231,-1.4235,-1.4261,-1.4267,-1.4275,-1.4299,-1.4304,-1.4332,-1.4334,-1.4371,-1.4369,-1.4366,-1.4366,-1.4388,-1.4386,-1.4459,-1.4468,-1.4407,-1.4407,-1.4408,0,-1.416,-1.418,-1.4194,-1.4207,-1.4215,-1.4235,-1.4248,-1.4249,-1.4262,-1.4281,-1.4297,-1.432,-1.4338,-1.4376,-1.4386,-1.4407,-1.4406,-1.443,-1.4409,-1.4409,-1.4407,-1.4406,-1.4409,-1.4434,-1.4435,-1.4435,-1.4436,0,-1.4214,-1.4215,-1.4232,-1.4251,-1.4266,-1.4281,-1.4295,-1.4306,-1.431,-1.4325,-1.4349,-1.4363,-1.4392,-1.4415,-1.4437,-1.4446,-1.4442,-1.4442,-1.4448,-1.4449,-1.4447,-1.4449,-1.4377,-1.444,-1.444,-1.4439,-1.4439,-1.4439,-1.4253,-1.427,-1.4283,-1.4303,-1.4314,-1.4327,-1.4344,-1.4351,-1.437,-1.4393,-1.4393,-1.4419,-1.4434,-1.4463,-1.4473,-1.4495,-1.4487,-1.4497,-1.4499,-1.4501,-1.4504,-1.4443,-1.4499,-1.4498,-1.4498,-1.4498,-1.4498,0,-1.4307,-1.4315,-1.4333,-1.4353,-1.4369,-1.4362,-1.4378,-1.4393,-1.4415,-1.4429,-1.4447,-1.4474,-1.4497,-1.4508,-1.453,-1.4545,-1.4544,-1.4551,-1.4551,-1.4553,-1.4509,-1.4501,-1.4552,-1.4552,-1.4552,-1.4552,-1.4552,-1.4552,-1.4337,-1.4366,-1.4368,-1.4402,-1.441,-1.4435,-1.4444,-1.4457,-1.4468,-1.4499,-1.4517,-1.4523,-1.4537,-1.456,-1.4581,-1.4584,-1.4593,-1.4601,-1.4603,-1.4561,-1.4556,-1.4551,-1.4544,-1.4603,-1.4603,-1.4645,-1.4646,-1.4646]},{"header":{"parameterUnit":"m.s-1","parameterCategory":1,"la1":30.2991,"la2":30.254,"lo1":-89.0895,"lo2":-89.0444,"dy":0.0017,"dx":0.0017,"nx":28,"ny":28,"refTime":"2025-11-17T03:00:00:Z","depth":0,"parameterNumber":3,"parameterNumberName":"V-component_of_WINDS"},"data":[0,0,0,0,0,0,0,0,0,0,0,0,0,0,0,0,0,0,0,0,0,0,0,0,0,0,0,0,0,0,0,0,0,0,0,0,0,0,0,0,0,0,0,0,0,0,0,0,0,0,0,0,0,0,0,0,0,0,2.6198,2.6198,0,2.6174,2.6173,2.6173,2.6134,2.6133,2.6132,2.6131,2.6105,2.6105,2.6105,0,0,0,0,0,0,0,0,0,0,0,0,0,2.621,2.621,2.6198,2.6197,2.6197,2.6174,2.6173,2.6173,2.6134,2.6133,2.6132,2.6131,2.6105,2.6105,2.6105,0,0,0,0,0,0,0,0,0,0,0,0,0,2.6197,2.621,2.6198,2.6175,2.6173,2.6174,2.6173,2.6173,2.6134,2.6133,2.6132,2.6131,2.6105,2.6105,2.6105,2.6127,0,0,2.6105,2.6105,0,0,0,0,0,0,0,0,2.6198,2.6197,2.6179,2.6176,2.6174,2.6156,2.6168,2.6157,2.6134,2.6149,2.6131,2.613,2.6123,2.6121,2.6119,2.6125,2.6124,2.6105,2.6105,2.6105,2.6105,0,0,0,0,0,0,0,2.6199,2.6197,2.6188,2.6178,2.6175,2.6166,2.6163,2.6166,2.6142,2.6147,2.6144,2.6142,2.6121,2.6119,2.6118,2.6124,2.6105,2.6105,2.6105,2.6105,2.6148,2.6149,0,0,0,0,0,0,2.6203,2.6198,2.6189,2.6187,2.6183,2.6166,2.6163,2.6162,2.6142,2.6138,2.6143,2.614,2.612,2.6118,2.6117,2.6142,2.6105,2.6105,2.6105,2.6147,2.6148,2.615,0,0,0,0,0,0,2.6203,2.6203,2.619,2.6192,2.619,2.6167,2.6167,2.6163,2.616,2.6139,2.6134,2.6145,2.6119,2.6117,2.6125,2.614,2.6105,2.6105,2.6146,2.6147,2.6149,2.6191,0,0,0,0,0,0,2.6204,2.6203,2.6211,2.6193,2.619,2.6198,2.6168,2.6163,2.6161,2.6157,2.614,2.6136,2.6118,2.6125,2.6125,2.614,2.6105,2.6144,2.6146,2.6148,2.6188,2.6194,2.6199,0,0,0,0,0,2.6205,2.6223,2.6211,2.6211,2.6199,2.6199,2.6198,2.6177,2.6162,2.617,2.6156,2.6136,2.6139,2.6126,2.6126,2.6141,2.6143,2.6146,2.6148,2.6186,2.6193,2.6199,0,0,0,0,0,0,2.6243,2.622,2.6207,2.622,2.6212,2.6193,2.6202,2.6185,2.6181,2.6178,2.6152,2.6149,2.616,2.6151,2.6138,2.6161,2.6138,2.6141,2.6167,2.6173,2.6179,2.6181,2.6105,0,0,0,0,0,2.6253,2.6256,2.6235,2.6249,2.6246,2.6225,2.6224,2.6209,2.6199,2.6196,2.6182,2.6174,2.6172,2.6172,2.617,2.6187,2.6183,2.6197,2.6202,2.6207,2.6209,2.6219,2.6225,2.6158,2.6158,2.6158,0,0,2.6274,2.6262,2.6265,2.6256,2.6248,2.6252,2.6222,2.6226,2.6228,2.6196,2.6203,2.6193,2.6182,2.6195,2.62,2.6187,2.6227,2.621,2.6214,2.6214,2.6222,2.6229,2.6235,2.616,2.616,2.6159,0,0,2.6314,2.6305,2.6316,2.6309,2.6297,2.6283,2.6286,2.6269,2.6262,2.6268,2.6245,2.6247,2.6245,2.6238,2.6235,2.6273,2.6255,2.6273,2.6302,2.6311,2.6317,2.6321,2.6336,2.6342,2.6276,2.6276,2.6276,0,2.6341,2.6345,2.6323,2.633,2.6327,2.6299,2.631,2.6304,2.6292,2.6291,2.6277,2.6276,2.6266,2.6278,2.6287,2.6285,2.6288,2.6275,2.6318,2.6322,2.6326,2.634,2.6346,2.6278,2.6278,2.6278,2.6277,0,2.638,2.6383,2.6394,2.6384,2.6382,2.6391,2.6371,2.6372,2.6357,2.6345,2.6353,2.634,2.6335,2.6337,2.6322,2.6347,2.634,2.6322,2.6299,2.6335,2.6348,2.6353,2.6281,2.6281,2.628,2.6279,0,0,2.6444,2.6423,2.6427,2.6423,2.6408,2.641,2.6418,2.6414,2.6416,2.6409,2.6415,2.6415,2.6399,2.6395,2.6379,2.6388,2.6421,2.6369,2.6369,2.6381,2.6449,2.6463,2.647,2.6409,2.641,2.641,2.645,0,2.6482,2.6494,2.6475,2.6492,2.6495,2.6468,2.6475,2.6467,2.6456,2.6457,2.6444,2.6445,2.6424,2.6421,2.6429,2.6416,2.6435,2.6412,2.6415,2.6415,2.642,2.6476,2.6491,2.6529,2.6455,2.6456,2.6457,0,2.6528,2.6524,2.6541,2.6527,2.6528,2.6534,2.653,2.6531,2.6521,2.6513,2.6509,2.6491,2.6498,2.6474,2.6484,2.6469,2.6469,2.6463,2.6464,2.6464,2.6439,2.6479,2.6541,2.6547,2.6464,2.6463,2.6463,0,2.6574,2.6573,2.6584,2.6581,2.6564,2.6569,2.6563,2.6552,2.6551,2.6547,2.6547,2.6543,2.6542,2.6539,2.6521,2.6506,2.6533,2.6508,2.6527,2.6528,2.6535,2.6535,2.6599,2.6533,2.6533,2.6533,2.6533,0,2.6619,2.6631,2.6605,2.6611,2.6624,2.6602,2.6616,2.6606,2.6597,2.6602,2.6578,2.6583,2.6558,2.656,2.6545,2.6556,2.6555,2.6549,2.6545,2.6552,2.6553,2.6552,2.6549,2.6534,2.6534,2.6534,2.6533,0,2.6674,2.6656,2.6666,2.665,2.6646,2.6656,2.6642,2.6648,2.6635,2.6642,2.6642,2.6622,2.6624,2.6605,2.6602,2.6593,2.6611,2.6602,2.6614,2.6612,2.6632,2.6631,2.6699,2.6707,2.6635,2.6636,2.6637,0,2.6704,2.6713,2.6698,2.6699,2.6694,2.6697,2.6696,2.6674,2.6675,2.6666,2.6673,2.6672,2.6671,2.6675,2.666,2.6659,2.665,2.6674,2.665,2.6657,2.6652,2.6652,2.6654,2.6679,2.668,2.6681,2.6681,0,2.6761,2.6752,2.6752,2.675,2.675,2.6747,2.6742,2.6744,2.6721,2.6723,2.6724,2.6724,2.6722,2.6722,2.6718,2.6711,2.6693,2.6689,2.6694,2.6701,2.6709,2.6706,2.663,2.6688,2.6687,2.6687,2.6686,2.6686,2.6805,2.6812,2.6803,2.6804,2.6798,2.6795,2.68,2.6788,2.6789,2.6786,2.6773,2.6778,2.6769,2.6762,2.6756,2.676,2.6748,2.6754,2.6756,2.6758,2.6763,2.6707,2.6758,2.6758,2.6758,2.6758,2.6758,0,2.6862,2.6854,2.6856,2.685,2.6852,2.6834,2.6828,2.6831,2.6835,2.6828,2.6828,2.683,2.6831,2.6817,2.6816,2.6821,2.6813,2.6821,2.6821,2.682,2.6772,2.6769,2.6828,2.6828,2.6828,2.6828,2.6828,2.6828,2.6891,2.6903,2.6893,2.6902,2.6894,2.6899,2.6897,2.6894,2.6888,2.6892,2.6893,2.6884,2.6874,2.6873,2.6873,2.6868,2.687,2.6882,2.6875,2.683,2.6824,2.6817,2.6814,2.6882,2.6882,2.6923,2.6923,2.6923]}]]